Regional Weather Roundup
Issued by NWS

Home | Current Version | Previous Version | Text Only | Print | Product List | Glossary On
Versions: 1 2 3 4 5 6 7 8 9 10 11 12 13 14 15 16 17 18 19 20 21 22 23 24 25 26 27 28 29 30 31 32 33 34 35 36 37 38 39 40 41 42 43 44 45 46 47 48 49 50
000
ASUS44 KBMX 051810
RWRAL

ALABAMA REGIONAL WEATHER ROUNDUP
NATIONAL WEATHER SERVICE BIRMINGHAM AL
100 PM CDT TUE MAY 05 2015

NOTE: "FAIR" INDICATES FEW OR NO CLOUDS BELOW 12,000 FEET
WITH NO SIGNIFICANT WEATHER AND/OR OBSTRUCTIONS TO VISIBILITY.

THE REMARK "TC" DENOTES TEMPERATURE IN DEGREES CELSIUS.

ALZ001>011-014-016>018-020-051900-
NORTH ALABAMA

CITY           SKY/WX    TMP DP  RH WIND       PRES   REMARKS
MUSCLE SHOALS  MOSUNNY   81  50  33 VRB3      30.26F
6HR MIN TEMP:  59; 6HR MAX TEMP:  82;

HUNTSVILLE     MOSUNNY   81  54  39 E7        30.27F
6HR MIN TEMP:  61; 6HR MAX TEMP:  84;

DECATUR        MOSUNNY   77  57  50 S3        30.27F
6HR MIN TEMP:  57; 6HR MAX TEMP:  80;

HALEYVILLE       N/A     80  54  40 MISG      30.29F
6HR MIN TEMP:  55; 6HR MAX TEMP:  80;

GADSDEN        MOSUNNY   79  55  44 E8        30.27F
$$

ALZ012-013-022-023-030>036-040>044-051900-
WEST CENTRAL ALABAMA

CITY           SKY/WX    TMP DP  RH WIND       PRES   REMARKS
TUSCALOOSA     MOSUNNY   83  55  38 E8        30.24F
6HR MIN TEMP:  59; 6HR MAX TEMP:  83;

$$

ALZ015-024>027-033>036-040>044-051900-
CENTRAL ALABAMA

CITY           SKY/WX    TMP DP  RH WIND       PRES   REMARKS
BIRMINGHAM     MOSUNNY   80  53  39 E7        30.28F
6HR MIN TEMP:  65; 6HR MAX TEMP:  81;

MONTGOMERY     MOSUNNY   82  56  40 E16       30.24F
6HR MIN TEMP:  61; 6HR MAX TEMP:  83;

SHELBY CO ARPT PTSUNNY   80  56  43 VRB5      30.26F
6HR MIN TEMP:  61; 6HR MAX TEMP:  80;

MAXWELL AFB    MOSUNNY   82  56  40 E13       30.23F
6HR MIN TEMP:  61; 6HR MAX TEMP:  82;

GREENVILLE     FAIR      81  53  37 SE9G17    30.22F
6HR MIN TEMP:  61; 6HR MAX TEMP:  83;

$$

ALZ019-021-028-029-037-038-045>048-051900-
EAST CENTRAL ALABAMA

CITY           SKY/WX    TMP DP  RH WIND       PRES   REMARKS
ANNISTON       MOSUNNY   80  55  42 E9        30.27F
6HR MIN TEMP:  60; 6HR MAX TEMP:  81;

ALEXANDER CITY SUNNY     77  51  40 E7        30.26F
6HR MIN TEMP:  57; 6HR MAX TEMP:  77;

AUBURN         PTSUNNY   75  54  46 E13G18    30.28F
6HR MIN TEMP:  61; 6HR MAX TEMP:  77;

$$

ALZ051>064-051900-
SOUTHWEST ALABAMA

CITY           SKY/WX    TMP DP  RH WIND       PRES   REMARKS
MOBILE         PTSUNNY   79  58  48 E6        30.19F
6HR MIN TEMP:  62; 6HR MAX TEMP:  81;

BROOKLEY FIELD MOSUNNY   81  60  48 SE6       30.20F
6HR MIN TEMP:  66; 6HR MAX TEMP:  82;

EVERGREEN      MOSUNNY   81  54  39 E14       30.22F
6HR MIN TEMP:  56; 6HR MAX TEMP:  82; 6HR PCP: TRACE;

$$

ALZ049-050-065>069-051900-
SOUTHEAST ALABAMA

CITY           SKY/WX    TMP DP  RH WIND       PRES   REMARKS
DOTHAN         SUNNY     80  54  40 E12G22    30.26F
6HR MIN TEMP:  62; 6HR MAX TEMP:  81;

OZARK          MOSUNNY   81  54  39 NE13G21   30.21F
6HR MIN TEMP:  62; 6HR MAX TEMP:  81;

TROY           MOSUNNY   83  55  38 E14G22    30.24F
6HR MIN TEMP:  61; 6HR MAX TEMP:  83;

EUFAULA        FAIR      83  54  36 NE15G21   30.23F
6HR MIN TEMP:  63; 6HR MAX TEMP:  85;

$$



USA.gov is the U.S. government's official web portal to all federal, state and local government web resources and services.